Weather History for KMHK - August, 2013

Change the Weather History Date:

Thursday, August 15, 2013

  Actual Average Record
Temperature  
Mean Temperature 73 °F 78 °F  
Max Temperature 81 °F 90 °F 105 °F (2007)
Min Temperature 64 °F 65 °F 54 °F (2006)
Degree Days  
Heating Degree Days 0 0  
Month to date heating degree days 0 0  
Since 1 June heating degree days 12 12  
Since 1 July heating degree days 3 1  
Cooling Degree Days 8 13  
Month to date cooling degree days 149 203  
Year to date cooling degree days 996 1009  
Since 1 June cooling degree days 860 909  
Growing Degree Days 22 (Base 50)    
Moisture  
Dew Point 62 °F    
Average Humidity 80    
Maximum Humidity 100    
Minimum Humidity 60    
Precipitation  
Precipitation 0.25 in 0.15 in 0.62 in (2011)
Month to date precipitation 4.10 1.72  
Year to date precipitation 21.22 21.98  
Sea Level Pressure  
Sea Level Pressure 30.03 in    
Wind  
Wind Speed 6 mph (SSE)    
Max Wind Speed 18 mph    
Max Gust Speed 23 mph    
Visibility 9 miles    
Events Rain , Thunderstorm    
T = Trace of Precipitation, MM = Missing Value Source: NWS Daily Summary

Daily Weather History Graph

Daily Weather History Graph

Search for Another Location

Airport or City:

Trip Planner

Search our weather history database for the weather conditions in past years. The results will help you decide how hot, cold, wet, or windy it might be!

Date:

Astronomy

Aug. 15, 2013 Rise Set
Actual Time 6:40 AM CDT 8:21 PM CDT
Civil Twilight 6:11 AM CDT 8:49 PM CDT
Nautical Twilight 5:36 AM CDT 9:24 PM CDT
Astronomical Twilight 5:00 AM CDT 10:00 PM CDT
Moon 3:39 PM CDT (8/15) 12:51 AM CDT (8/15)
Length of Visible Light 14h 38m
Length of Day
13h 41m
Waxing Gibbous, 64% of the Moon is Illuminated
Aug 15
Waxing Gibbous
Aug 20
Full
Aug 28
Last Quarter
Sep 5
New
Sep 12
First Quarter

Hourly Weather History & Observations

Time (CDT) Temp. Heat Index Dew Point Humidity Pressure Visibility Wind Dir Wind Speed Gust Speed Precip Events Conditions
12:52 AM 66.9 °F - 60.1 °F 79% 30.08 in 10.0 mi SSW 4.6 mph - N/A   Clear
1:52 AM 66.0 °F - 60.1 °F 81% 30.08 in 10.0 mi Calm Calm - N/A   Partly Cloudy
2:52 AM 66.9 °F - 60.1 °F 79% 30.08 in 10.0 mi SSW 3.5 mph - N/A   Overcast
3:52 AM 66.9 °F - 59.0 °F 76% 30.05 in 10.0 mi South 5.8 mph - N/A   Overcast
4:52 AM 66.9 °F - 57.9 °F 73% 30.06 in 10.0 mi South 3.5 mph - N/A   Mostly Cloudy
5:52 AM 66.0 °F - 57.0 °F 73% 30.06 in 10.0 mi SSW 3.5 mph - N/A   Mostly Cloudy
6:52 AM 66.0 °F - 57.9 °F 75% 30.05 in 10.0 mi SSW 5.8 mph - N/A   Overcast
7:52 AM 66.9 °F - 57.9 °F 73% 30.06 in 10.0 mi South 4.6 mph - N/A   Clear
8:52 AM 69.1 °F - 59.0 °F 70% 30.08 in 10.0 mi South 5.8 mph - N/A   Clear
9:52 AM 72.0 °F - 60.1 °F 66% 30.06 in 10.0 mi SSW 11.5 mph - N/A   Clear
10:52 AM 75.0 °F - 61.0 °F 62% 30.05 in 10.0 mi SSW 11.5 mph 20.7 mph N/A   Clear
11:52 AM 78.1 °F - 64.0 °F 62% 30.03 in 10.0 mi South 13.8 mph 19.6 mph N/A   Scattered Clouds
12:52 PM 79.0 °F - 66.0 °F 64% 30.02 in 10.0 mi SSW 9.2 mph - N/A   Mostly Cloudy
1:52 PM 81.0 °F 83.0 °F 66.0 °F 60% 30.00 in 10.0 mi South 6.9 mph - N/A   Mostly Cloudy
2:52 PM 72.0 °F - 64.0 °F 76% 29.99 in 10.0 mi East 13.8 mph - N/A   Mostly Cloudy
3:35 PM 71.6 °F - 64.4 °F 78% 30.01 in 10.0 mi East 15.0 mph - 0.00 in Rain , Thunderstorm Light Thunderstorms and Rain
3:52 PM 71.1 °F - 64.0 °F 78% 29.98 in 5.0 mi East 9.2 mph - 0.01 in Rain , Thunderstorm Thunderstorms and Rain
4:52 PM 64.9 °F - 63.0 °F 93% 30.01 in 5.0 mi North 4.6 mph - 0.06 in Rain , Thunderstorm Thunderstorms and Rain
5:02 PM 66.2 °F - 62.6 °F 88% 30.03 in 5.0 mi Variable 4.6 mph - 0.02 in Rain , Thunderstorm Thunderstorms and Rain
5:34 PM 64.4 °F - 64.4 °F 100% 30.02 in 3.0 mi Calm Calm - 0.12 in Rain , Thunderstorm Light Thunderstorms and Rain
5:52 PM 64.9 °F - 64.0 °F 97% 30.02 in 10.0 mi WNW 8.1 mph - 0.13 in Rain , Thunderstorm Light Rain
6:07 PM 64.4 °F - 64.4 °F 100% 30.02 in 6.0 mi South 3.5 mph - 0.01 in Rain Light Rain
6:31 PM 64.4 °F - 64.4 °F 100% 30.02 in 8.0 mi NNW 3.5 mph - 0.03 in Rain , Thunderstorm Light Rain
6:52 PM 66.0 °F - 64.9 °F 96% 29.98 in 8.0 mi ENE 3.5 mph - 0.04 in Rain , Thunderstorm Light Thunderstorms and Rain
7:09 PM 66.2 °F - 64.4 °F 94% 30.00 in 8.0 mi North 4.6 mph - 0.01 in Rain Light Rain
7:16 PM 66.2 °F - 64.4 °F 94% 30.00 in 9.0 mi NE 4.6 mph - 0.01 in Rain , Thunderstorm Light Rain
7:31 PM 66.2 °F - 64.4 °F 94% 30.00 in 9.0 mi Calm Calm - 0.01 in Rain Light Rain
7:52 PM 66.9 °F - 64.9 °F 93% 29.99 in 10.0 mi North 4.6 mph - 0.01 in   Clear
8:52 PM 66.9 °F - 64.0 °F 90% 30.01 in 10.0 mi NNE 5.8 mph - N/A   Clear
9:52 PM 66.0 °F - 63.0 °F 90% 30.01 in 10.0 mi East 6.9 mph - N/A   Clear
10:52 PM 66.0 °F - 62.1 °F 87% 30.02 in 10.0 mi ENE 8.1 mph - N/A   Clear